Regional Weather Roundup
Issued by NWS

Home | Current Version | Previous Version | Text Only | Print | Product List | Glossary Off
Versions: 1 2 3 4 5 6 7 8 9 10 11 12 13 14 15 16 17 18 19 20 21 22 23 24 25 26 27 28 29 30 31 32 33 34 35 36 37 38 39 40 41 42 43 44 45 46 47 48 49 50

000
ASUS45 KBOU 310810
RWRCO

WEATHER ROUNDUP FOR COLORADO
NATIONAL WEATHER SERVICE DENVER/BOULDER CO
200 AM MDT FRI JUL 31 2015

NOTE: "FAIR" INDICATES FEW OR NO CLOUDS BELOW 12000 FEET WITH NO
SIGNIFICANT WEATHER AND/OR OBSTRUCTIONS TO VISIBILITY.

COZ001>005-013-030-031-310900-
...NORTHWEST COLORADO...

CITY           SKY/WX    TMP DP  RH WIND       PRES   REMARKS
CRAIG          CLEAR     46  34  62 CALM      30.36R
HAYDEN         CLEAR     57  28  33 E10       30.38S
MEEKER         CLEAR     52  32  46 E5        30.38R
MOUNT WERNER   NOT AVBL
STEAMBOAT SPGS CLEAR     50  37  60 CALM      30.42S
WALDEN         NOT AVBL
$$

COZ006>008-011-310900-
...WEST CENTRAL VALLEYS...

CITY           SKY/WX    TMP DP  RH WIND       PRES   REMARKS
GRAND JUNCTION CLEAR     66  24  20 SE3       30.22R
MONTROSE       PTCLDY    66  34  30 S8        30.32S
EAGLE          CLEAR     57  28  33 E3        30.43R
RIFLE          CLEAR     64  31  28 CALM      30.30S
DELTA          PTCLDY    64  34  32 CALM      30.28R
NUCLA          PTCLDY    68  34  28 S5        30.39R
$$

COZ017>023-064>068-310900-
...SOUTHWEST COLORADO...

CITY           SKY/WX    TMP DP  RH WIND       PRES   REMARKS
DURANGO        CLOUDY    62  57  83 N8        30.47S
CORTEZ         CLEAR     67  56  67 SW8       30.39S
PAGOSA SPRINGS CLOUDY    60  57  91 NW5       30.54F
TELLURIDE      MOCLDY    60  32  35 CALM      30.60S
WOLF CREEK PAS NOT AVBL
$$

COZ009-010-012-014-032>034-037-058>063-310900-
...CENTRAL COLORADO...

CITY           SKY/WX    TMP DP  RH WIND       PRES   REMARKS
ASPEN          CLEAR     55  36  48 S7        30.47S
BUENA VISTA    CLOUDY    57  52  84 CALM      30.54S
COPPER MTN     PTCLDY    54  39  58 S15G21    30.81S
BERTHOUD PASS  NOT AVBL
COTTONWOOD PAS NOT AVBL
GUNNISON       PTCLDY    57  43  58 N10       30.52R
KREMMLING      CLEAR     50  34  53 CALM      30.49S
LEADVILLE      CLEAR     48  43  82 NE5       30.66F
MONARCH PASS   CLOUDY    50  41  71 CALM      30.92S
SALIDA         PTCLDY    63  50  63 SW5       30.58S
SUNLIGHT       CLEAR     55  27  33 CALM      30.73S
WILKERSON PASS NOT AVBL
$$

COZ069>075-310900-
...SAN LUIS VALLEY/SANGRE DE CRISTO MOUNTAINS...

CITY           SKY/WX    TMP DP  RH WIND       PRES   REMARKS
ALAMOSA        CLOUDY    57  52  83 E6        30.48F
LA VETA PASS   NOT AVBL
SAGUACHE       NOT AVBL
$$

COZ035-036-038>040-310900-
...NORTHERN COLORADO FRONT RANGE...

CITY           SKY/WX    TMP DP  RH WIND       PRES   REMARKS
DENVER INTL AP MOCLDY    70  52  52 SW16      30.32F
DMNS CITY PARK   N/A     67  55  66 SW3       30.33S
AURORA         PTCLDY    69  53  58 S15       30.35S
FRONT RANGE AP NOT AVBL
ERIE MUNI ARPT PTCLDY    65  57  75 W6        30.32S
BOULDER MUN AP PTCLDY    68  55  64 CALM      30.34S
CENTENNIAL     PTCLDY    67  53  61 S10       30.36S
BROOMFIELD     NOT AVBL
FORT COLLINS   PTCLDY    63  55  77 N7        30.33S
LONGMONT       PTCLDY    68  59  71 N6        30.33F
$$

COZ041-046-047-076>085-087-088-310900-
...PIKES PEAK/PALMER DIVIDE AND SOUTHERN FOOTHILLS...

CITY           SKY/WX    TMP DP  RH WIND       PRES   REMARKS
COLO. SPRINGS  PTCLDY    62  57  83 NE5       30.43F
A. F. ACADEMY  PTCLDY    61  55  78 VRB3      30.44F
ELLICOTT       PTCLDY     1  32 100 SE6       30.40F WCI -10
FALCON         PTCLDY    58  57  99 CALM      30.47F
FORT CARSON    PTCLDY    59  54  83 N6        30.39F
LIMON          CLEAR     55  53  93 CALM      30.36F
MONUMENT HILL  NOT AVBL
TRINIDAD       PTCLDY    63  56  78 W7        30.35F
$$

COZ042>045-048>051-090-091-310900-
...NORTHEAST COLORADO...

CITY           SKY/WX    TMP DP  RH WIND       PRES   REMARKS
GREELEY ARPT   PTCLDY    61  55  82 N8        30.31S
AKRON          CLEAR     66  55  67 SW9       30.30S
BURLINGTON     CLEAR     63  59  87 CALM      30.29R
WRAY           CLEAR     61  57  86 CALM      30.25F
STERLING       CLEAR     61  55  82 N3        30.27S
HOLYOKE        NOT AVBL
FORT MORGAN    CLEAR     63  57  82 W5        30.30S
$$

COZ086-089-092>099-310900-
...SOUTHEAST COLORADO...

CITY           SKY/WX    TMP DP  RH WIND       PRES   REMARKS
PUEBLO         PTCLDY    68  57  68 NE7       30.31F
LA JUNTA       PTCLDY    67  64  90 E8        30.27F
LAMAR          PTCLDY    65  64  97 CALM      30.25S FOG
SPRINGFIELD      N/A     63  63 100 S16       30.30F
$$


USA.gov is the U.S. government's official web portal to all federal, state and local government web resources and services.